User: anonymous   Login
Location: Young's Pond
(41.2695°N, 72.7766°W)
Time: 22:04:39
(UTC-04:00)
Language:

Spot 4 - Orbit

View from above orbital plane
View from above orbital plane
View from above satellite
View from above satellite

Ground track
Ground track

The orbit data is extracted from the following two-line orbital elements,

1 25260U 98017A   16147.92657632 -.00000000 +00000-0 +10973-4 0  9994
2 25260 098.3802 224.9555 0013570 026.1674 334.0203 14.53407515945740
Epoch (UTC): 26 May 2016 22:14:16
Eccentricity: 0.0013570
inclination: 98.3802°
perigee height: 705 km
apogee height: 724 km
right ascension of ascending node: 224.9555°
argument of perigee: 26.1674°
revolutions per day: 14.53407515
mean anomaly at epoch: 334.0203°
orbit number at epoch: 94574

The dashed part of the orbit path shows where the satellite is in the earth's shadow,  

DLR